Location: Allonne
(49.4086°N, 2.1143°E)
Time: 03:58:38
(UTC+00:00)

UNISAT 6 - Pass Details

Date: 01 December 2023
Orbit: 596 x 671 km, 97.7° (Epoch: 22 February)

Event Time Altitude Azimuth Distance (km) Brightness Sun altitude
Rises 17:12:53 0° 12° (NNE) 3,004 ? -12.1°
Reaches altitude 10° 17:15:08 10° 11° (NNE) 2,077 ? -12.4°
Maximum altitude 17:19:40 79° 286° (WNW) 662 ? -13.1°
Drops below altitude 10° 17:24:03 10° 200° (SSW) 2,012 ? -13.8°
Sets 17:26:13 0° 199° (SSW) 2,903 ? -14.2°
